Other Public Products
Issued by NWS Grand Forks, ND

Home | Current Version | Previous Version | Graphics & Text | Print | Product List | Glossary On
Versions: 1 2 3 4 5 6 7 8 9 10 11 12 13 14 15 16 17 18 19 20 21 22 23 24 25 26 27 28 29 30 31 32 33 34 35 36 37 38 39 40 41 42 43 44 45 46 47 48 49 50
000
FPUS83 KFGF 022331
OPUFGF
PRAIRIE TO PINES WEATHER ROUNDUP
NATIONAL WEATHER SERVICE EASTERN NORTH DAKOTA/GRAND FORKS ND
600 PM CDT SAT MAY 02 2015

 **SATELLITE DATA USED TO AUGMENT SKY COVER AT AUTOMATED STATIONS**
 *****  WEATHER ACROSS EASTERN NORTH DAKOTA  *****

CITY           SKY/WX    TMP DP  RH WIND       PRES   REMARKS
GRAND FORKS    CLOUDY    70  47  43 S16G29    29.59F
GRAND FORKS AF CLOUDY    70  47  44 SE21      29.57F
GRAND CITY NWS   N/A     68 N/A N/A SE12        N/A
BUXTON           N/A     67  51  57 CALM        N/A
DEVILS LAKE    MOSUNNY   79  39  24 SW9       29.54S
FARGO          LGT RAIN  77  41  27 NW25G40   29.64R
WAHPETON ARPT  PTCLDY    84  27  12 SW16G24   29.58F
$$

 *****  WEATHER ACROSS CENTRAL AND WESTERN NORTH DAKOTA  *****

CITY           SKY/WX    TMP DP  RH WIND       PRES   REMARKS
JAMESTOWN      CLOUDY    82  35  18 S18G24    29.55F
BISMARCK       MOSUNNY   83  32  16 W21G26    29.60S
MINOT          MOSUNNY   76  32  20 NW20G29   29.60R
MINOT AFB      MOSUNNY   75  35  22 NW22G30   29.60R
GARRISON         N/A     79  31  17 NW24G30   29.61R
WILLISTON      LGT RAIN  76  30  18 NW10      29.66R
DICKINSON      PTSUNNY   75  26  16 W17       29.66R
HETTINGER      MOSUNNY   78  23  13 W22G32    29.69S
$$

 *****  OTHER OBSERVATIONS NORTHEAST NORTH DAKOTA  *****

CITY           SKY/WX    TMP DP  RH WIND       PRES   REMARKS
WALHALLA       MOCLDY    75  41  29 S14G22    29.54R
LANGDON        CLOUDY    79  41  25 S18       29.55S
CAVALIER       FAIR      73  45  35 SE9G16    29.54R
GRAFTON        FAIR      70  48  46 S25G35    29.56F
CANDO          FAIR      79  30  17 NW14G23   29.56R
FORT TOTTEN    NOT AVBL
ROLLA          NOT AVBL
RUGBY          NOT AVBL
 ***** THE ABOVE OBSERVATIONS ARE NON NWS ARE NOT QUALITY
        CONTROLLED AND MAY MIS-REPORT RAIN FOR SNOW...
$$

 *****  OTHER OBSERVATIONS SOUTHEAST NORTH DAKOTA *****

CITY           SKY/WX    TMP DP  RH WIND       PRES   REMARKS
COOPERSTOWN    NOT AVBL
VALLEY CITY    FAIR      75  46  35 N6        29.58F
OAKES            N/A     81  43  26 SW17      29.59R
GWINNER        CLEAR     82  45  26 S21       29.58F
SHEYENNE NWR     N/A     84  39  20 S20       29.95
BUFFALO        NOT AVBL
WYNDMERE         N/A     84  34  16 S20         N/A
 ***** THE ABOVE OBSERVATIONS ARE NON NWS ARE NOT QUALITY
       CONTROLLED AND MAY MIS-REPORT RAIN FOR SNOW...
$$

  *****  WEATHER ACROSS NORTHERN MINNESOTA  *****

CITY           SKY/WX    TMP DP  RH WIND       PRES   REMARKS
FLAG ISLAND    LGT RAIN  61  50  67 W12G18    29.64R
WARROAD        LGT RAIN  72  46  40 SW6       29.62F
ROSEAU         CLOUDY    73  39  29 SW9       29.61F
HALLOCK        CLOUDY    75  41  29 S26G35    29.56R
THF RVR FALLS  CLOUDY    72  41  33 SW22G28   29.66S
HALSTAD          N/A     70  36  28 N14G41      N/A
FOSSTON        NOT AVBL
BAUDETTE       CLOUDY    78  33  19 S16G26    29.60R
WASKISH        CLOUDY    79  37  22 S7G18     29.64R
CROOKSTON      HVY RAIN  64  46  52 SW17G35   29.67R
$$
  *****  WEATHER ACROSS CENTRAL AND WEST MINNESOTA  *****

CITY           SKY/WX    TMP DP  RH WIND       PRES   REMARKS
BEMIDJI        PTSUNNY   75  34  22 S16G22    29.66S
PARK RAPIDS    MOSUNNY   78  37  22 S18       29.68F
WADENA         SUNNY     75  43  31 S15       29.68F
DETROIT LAKES  PTSUNNY   79  34  19 S16       29.65F
MOORHEAD       PTSUNNY   82  28  14 S9        29.58F
FERGUS FALLS   MOSUNNY   81  37  21 S18       29.61F
ELBOW LAKE     FAIR      81  40  23 S17       29.64F
MORRIS MN      SUNNY     84  37  18 S15G22    29.65F
STAPLES        SUNNY     77  36  22 S13G20    29.70S
WHEATON        SUNNY     82  37  20 S13       29.63F
$$
  *****  WEATHER ELSEWHERE ACROSS MINNESOTA  *****

CITY           SKY/WX    TMP DP  RH WIND       PRES   REMARKS
DULUTH         MOSUNNY   73  42  32 S8        29.76F
INTRNTL FALLS  MOSUNNY   79  35  20 SW16G25   29.62S
ELY            PTSUNNY   75  30  19 S12       29.70F
CLOQUET        MOSUNNY   75  27  16 S10       29.74F
BRAINERD       SUNNY     77  41  27 S12       29.72F
HIBBING        SUNNY     78  33  19 SW12      29.71S
ALEXANDRIA     SUNNY     79  37  22 S16       29.70F
SAINT CLOUD    SUNNY     78  41  26 S17       29.72F
MINNEAPOLIS    MOSUNNY   80  42  25 S13G20    29.76F
$$

  *****  WEATHER ACROSS SOUTH DAKOTA  *****

CITY           SKY/WX    TMP DP  RH WIND       PRES   REMARKS
SIOUX FALLS    MOSUNNY   77  48  35 S16G23    29.74F
BROOKINGS      SUNNY     81  45  28 S18       29.71F
WATERTOWN      SUNNY     82  39  21 S17G24    29.69S
HURON          SUNNY     84  41  21 S13G21    29.65F
SISSETON         N/A     84  38  19 SW15      29.62F
ABERDEEN       MOSUNNY   87  36  16 S23G30    29.61F
MITCHELL       SUNNY     84  46  26 S12       29.69F
PIERRE         PTSUNNY   85  37  18 S14G22    29.60F
MOBRIDGE       PTSUNNY   88  30  12 W8        29.56F
RAPID CITY     PTSUNNY   80  31  16 N20G28    29.70S
$$

  *****  SOME WEATHER IN NEARBY STATES *****

CITY           SKY/WX    TMP DP  RH WIND       PRES   REMARKS
GLASGOW MT     SUNNY     69  36  29 N14G23    29.71R
GREAT FALLS MT SUNNY     66  34  30 NE17      29.78R
CHEYENNE WY    CLOUDY    58  38  47 W23G37    29.96R
SCOTTSBLUFF NE MOSUNNY   82  33  17 W10       29.77F
OMAHA NE       SUNNY     72  57  59 S21       29.81F
DES MOINES IA  PTSUNNY   66  55  67 S20       29.90R
DAVENPORT IA   PTSUNNY   74  37  26 SW16      29.95S
CHICAGO IL     PTSUNNY   75  35  23 SW12      29.94F
EAU CLAIRE WI  MOSUNNY   79  41  25 SW13      29.80S
LA CROSSE WI   MOSUNNY   79  33  19 S14       29.83S
$$

  *****  SOME NATIONAL WEATHER *****

CITY           SKY/WX    TMP DP  RH WIND       PRES   REMARKS
LA GUARDIA NY  PTCLDY    53  39  59 S14       29.97R
RALEIGH NC     PTSUNNY   68  50  52 CALM      30.04S
ATLANTA GA     MOSUNNY   76  46  34 CALM      30.04S
NEW ORLEANS LA MOSUNNY   80  48  32 E6        30.03S
OKLAHOMA CITY  PTSUNNY   80  55  42 S16G22    29.93F
ALBUQUERQUE NM LGT RAIN  70  32  24 VRB7G33   30.04R
SALT LAKE CITY PTSUNNY   81  28  14 NW6       29.80F
LOS ANGELES CA MOSUNNY   65  53  65 W18G25    29.83F
BOISE ID       SUNNY     79  27  14 N13G21    29.79F
SEATTLE WA     MOSUNNY   64  39  39 NW8       30.03F
$$

*** WEATHER ACROSS MANITOBA...SASKATCHEWAN AND ONTARIO ***
                ***ONTARIO***

CITY           SKY/WX    TMP DP  RH WIND       PRES   REMARKS
GERALDTON      MOSUNNY   66  43  42 S16G24    29.77F
THUNDER BAY    CLOUDY    54  41  62 NE9       29.77F
SIOUX LOOKOUT  PTSUNNY   75  37  25 S9        29.59F
TORONTO        MOSUNNY   70  39  32 S13G18    29.95S
BIG TROUT LK   SUNNY     55  39  54 S13G21    29.43F
PICKLE LAKE    PTSUNNY   72  34  25 S15G22    29.57S
DRYDEN         SUNNY     79  34  19 SW9G17    29.58F
KENORA         TSTM      61  50  67 W16       29.67R
$$
                *** MANITOBA***

CITY           SKY/WX    TMP DP  RH WIND       PRES   REMARKS
BRANDON        PTSUNNY   72  36  26 NW23      29.60R
DAUPHIN        MOSUNNY   63  39  42 NE17      29.61R
ISLAND LAKE    PTSUNNY   59  45  58 W3        29.44R
PILOT MOUND      N/A     75  34  22 NW16        N/A
THE PAS        PTSUNNY   55  43  62 SW3       29.60S
THOMPSON       PTSUNNY   55  34  44 VRB2      29.53F
WINNIPEG       CLOUDY    79  36  21 NW21      29.50S
LYNN LAKE      LGT RAIN  54  36  50 NE14G20   29.57R
CHURCHILL      CLOUDY    30  28  93 N23       29.68R WCI  17
GILLAM         CLOUDY    52  37  58 NW10      29.49R
$$
                ***SASKATCHEWAN***

CITY           SKY/WX    TMP DP  RH WIND       PRES   REMARKS
ESTEVAN        PTSUNNY   68  34  28 NW20G26   29.69R
KINDERSLEY     MOSUNNY   52  28  40 NW21G28   29.80R
LLOYDMINSTER   LGT RAIN  48  30  49 NW10G25   29.76S
PRINCE ALBERT  LGT RAIN  54  32  43 W23       29.68R
REGINA         CLOUDY    50  43  76 SW10G18   29.75R


USA.gov is the U.S. government's official web portal to all federal, state and local government web resources and services.